EW1783 Weather Reports


time (UTC)temp
C
wind
direction
speed
KPH
gust
KPH
rain 1hr
cm
rain 24hr
cm
rain mn
cm
humidity
%
barometer
mb
20260507170045 18 170 0.0 1.6 0.00 0.05 0.00 42 1008.3
20260507164538 18 236 0.0 1.6 0.00 0.05 0.00 42 1008.6
20260507163035 17 299 0.0 16.1 0.00 0.05 0.00 43 1008.7
20260507161540 17 80 0.0 4.8 0.00 0.05 0.00 41 1009.0
20260507160032 16 73 0.0 1.6 0.00 0.05 0.00 45 1009.1
20260507154530 16 79 0.0 8.0 0.00 0.05 0.00 47 1009.1
20260507153027 16 56 0.0 11.3 0.00 0.05 0.00 47 1009.3
20260507151529 16 74 0.0 0.0 0.00 0.05 0.00 45 1009.5
20260507150024 16 257 0.0 0.0 0.00 0.05 0.00 48 1010.0
20260507144529 16 355 0.0 1.6 0.00 0.10 0.00 47 1010.2
20260507143022 16 209 0.0 0.0 0.00 0.10 0.00 48 1010.4
20260507141519 15 259 0.0 1.6 0.00 0.10 0.00 51 1010.4
20260507140017 15 319 0.0 0.0 0.00 0.10 0.00 51 1010.6
20260507134514 14 255 0.0 1.6 0.00 0.15 0.00 57 1010.8
20260507133011 13 254 0.0 1.6 0.00 0.15 0.00 55 1010.9
20260507131520 13 105 0.0 0.0 0.00 0.15 0.00 60 1010.8
20260507130006 12 234 0.0 0.0 0.00 0.15 0.00 65 1011.1
20260507124505 12 252 0.0 0.0 0.00 0.23 0.00 64 1011.2
20260507123004 11 251 0.0 0.0 0.00 0.23 0.00 65 1011.0
20260507121503 11 65 0.0 1.6 0.00 0.23 0.00 66 1010.9
20260507120002 11 285 0.0 0.0 0.00 0.23 0.00 69 1010.8
20260507114502 11 73 0.0 0.0 0.00 0.30 0.00 69 1010.8
20260507113100 10 73 0.0 0.0 0.00 0.30 0.00 68 1010.7
20260507111600 10 73 0.0 0.0 0.00 0.30 0.00 71 1010.8
20260507110058 10 73 0.0 0.0 0.00 0.30 0.00 66 1010.5
20260507104556 10 73 0.0 0.0 0.00 0.30 0.00 67 1010.3
20260507103055 10 73 0.0 0.0 0.00 0.30 0.00 67 1010.0
20260507101559 10 280 0.0 0.0 0.00 0.30 0.00 66 1010.1
20260507100056 11 280 0.0 0.0 0.00 0.30 0.00 67 1009.7
20260507094548 11 329 0.0 0.0 0.00 0.30 0.00 68 1009.4
20260507093046 11 25 0.0 0.0 0.00 0.30 0.00 69 1009.5
20260507091545 11 24 0.0 0.0 0.00 0.30 0.00 69 1009.7
20260507090047 11 24 0.0 0.0 0.00 0.30 0.00 68 1009.6
20260507084547 11 318 0.0 0.0 0.00 0.30 0.00 71 1009.6
20260507083052 11 9 0.0 0.0 0.00 0.30 0.00 76 1009.5
20260507081538 11 9 0.0 0.0 0.00 0.30 0.00 77 1009.3
20260507080034 11 5 0.0 0.0 0.00 0.30 0.00 77 1009.0
20260507074534 11 32 0.0 0.0 0.00 0.30 0.00 77 1008.6
20260507073041 11 255 0.0 0.0 0.00 0.30 0.00 78 1008.7
20260507071536 11 255 0.0 0.0 0.00 0.30 0.00 79 1008.6
20260507070038 12 255 0.0 0.0 0.00 0.30 0.00 79 1009.0
20260507064535 12 255 0.0 0.0 0.00 0.30 0.00 79 1009.1
20260507063031 12 255 0.0 0.0 0.00 0.30 0.00 79 1009.1
20260507061527 12 255 0.0 0.0 0.00 0.30 0.00 78 1009.2
20260507060024 12 255 0.0 0.0 0.00 0.30 0.00 77 1009.4
20260507054526 12 255 0.0 0.0 0.00 0.30 0.00 78 1009.2
20260507053022 12 255 0.0 0.0 0.00 0.30 0.00 78 1008.9
20260507051521 12 255 0.0 0.0 0.00 0.30 0.00 79 1008.9
20260507050031 12 255 0.0 0.0 0.00 0.30 0.00 79 1008.9
20260507044518 12 255 0.0 0.0 0.00 0.30 0.00 79 1008.9
20260507043016 13 255 0.0 0.0 0.00 0.30 0.00 79 1008.5
20260507041527 13 256 0.0 0.0 0.00 0.30 0.00 79 1008.8
20260507040010 13 256 0.0 0.0 0.00 0.30 0.00 79 1009.2
20260507034515 13 256 0.0 0.0 0.00 0.30 0.30 79 1008.6
20260507033007 13 256 0.0 0.0 0.00 0.30 0.30 79 1008.6
20260507031505 13 256 0.0 0.0 0.00 0.30 0.30 79 1008.7
20260507030003 13 256 0.0 0.0 0.00 0.30 0.30 79 1008.9
20260507024632 13 260 0.0 0.0 0.00 0.30 0.30 79 1008.6
20260507023058 13 288 0.0 1.6 0.00 0.30 0.30 78 1008.3
20260507021557 14 289 0.0 0.0 0.00 0.30 0.30 78 1008.2
20260507020108 15 259 0.0 0.0 0.00 0.30 0.30 78 1008.2
20260507014605 15 132 0.0 0.0 0.00 0.30 0.30 77 1008.2
20260507013054 15 293 0.0 0.0 0.00 0.30 0.30 77 1008.1
20260507011552 15 211 0.0 0.0 0.00 0.30 0.30 78 1007.8
20260507010049 15 289 0.0 0.0 0.00 0.30 0.30 78 1007.7
20260507004548 16 16 0.0 0.0 0.00 0.30 0.30 78 1008.2
20260507003045 16 17 0.0 0.0 0.00 0.30 0.30 78 1007.8
20260507001546 16 182 0.0 0.0 0.00 0.30 0.30 82 1007.6
20260507000042 16 309 0.0 0.0 0.00 0.30 0.30 83 1007.3
20260506234550 16 246 0.0 0.0 0.00 0.30 0.30 83 1007.2
20260506233038 17 235 0.0 0.0 0.00 0.30 0.30 83 1006.4
20260506231548 17 281 0.0 0.0 0.00 0.30 0.30 84 1006.2
20260506230051 17 321 0.0 0.0 0.00 0.30 0.30 84 1006.1
20260506224538 18 307 0.0 0.0 0.00 0.30 0.30 83 1006.1
20260506223048 18 284 0.0 0.0 0.00 0.30 0.30 83 1006.1
20260506221535 19 195 0.0 0.0 0.00 0.30 0.30 84 1005.6
20260506220036 19 42 0.0 0.0 0.00 0.30 0.30 83 1005.7
20260506214534 19 16 0.0 0.0 0.00 0.30 0.30 86 1005.2
20260506213042 19 15 0.0 3.2 0.00 0.30 0.30 86 1005.5
20260506211547 19 303 0.0 0.0 0.00 0.30 0.30 87 1005.1
20260506210035 19 196 0.0 0.0 0.00 0.30 0.30 85 1004.5
20260506204534 19 109 0.0 0.0 0.00 0.30 0.30 86 1004.5
20260506203032 18 167 0.0 0.0 0.00 0.30 0.30 87 1004.4
20260506201535 18 147 0.0 0.0 0.00 0.30 0.30 89 1004.4
20260506200029 18 114 0.0 0.0 0.00 0.30 0.30 89 1004.4
20260506194530 18 114 0.0 0.0 0.00 0.30 0.30 89 1004.6
20260506193026 18 126 0.0 0.0 0.03 0.30 0.30 88 1004.6
20260506191526 18 117 0.0 0.0 0.03 0.30 0.30 87 1004.8
20260506190024 19 141 0.0 0.0 0.03 0.30 0.30 87 1004.7
20260506184522 19 141 0.0 0.0 0.03 0.30 0.30 85 1004.8
20260506183030 19 142 0.0 0.0 0.03 0.28 0.28 85 1005.0
20260506181521 18 122 0.0 0.0 0.03 0.28 0.28 86 1005.1
20260506180021 18 266 0.0 0.0 0.03 0.28 0.28 85 1005.1
20260506174520 19 173 0.0 0.0 0.03 0.28 0.28 83 1004.9
20260506173020 20 148 0.0 0.0 0.00 0.25 0.25 78 1004.9
20260506171526 20 101 0.0 0.0 0.00 0.25 0.25 76 1004.8